PST,Max TemperatureF,Mean TemperatureF,Min TemperatureF,Max Dew PointF,MeanDew PointF,Min DewpointF,Max Humidity, Mean Humidity, Min Humidity, Max Sea Level PressureIn, Mean Sea Level PressureIn, Min Sea Level PressureIn, Max VisibilityMiles, Mean VisibilityMiles, Min VisibilityMiles, Max Wind SpeedMPH, Mean Wind SpeedMPH, Max Gust SpeedMPH,PrecipitationIn, CloudCover, Events, WindDirDegrees
2011-11-1,51,40,28,40,33,28,100,77,54,30.57,30.50,30.36,10,4,0,7,1,10,0.00,2,Fog,29
2011-11-2,53,40,26,45,36,25,100,73,46,30.33,30.04,29.89,10,5,2,10,2,14,0.45,4,Rain,250
2011-11-3,50,41,31,45,40,33,100,86,71,29.93,29.89,29.84,10,4,0,9,2,10,0.01,5,Fog-Rain,280
2011-11-4,46,38,30,38,33,28,100,88,76,30.00,29.93,29.87,10,6,0,9,1,12,T,5,Fog,193
2011-11-5,46,41,36,42,39,36,100,95,89,29.91,29.83,29.76,10,4,0,8,2,13,0.12,7,Fog-Rain,123
2011-11-6,52,42,31,43,37,30,100,77,54,30.18,29.97,29.81,10,6,0,7,1,12,0.00,5,Fog,139
2011-11-7,50,45,39,45,42,39,100,90,80,30.30,30.26,30.21,10,5,0,7,1,13,T,8,Fog-Rain,299
2011-11-8,52,46,39,45,42,39,100,82,63,30.30,30.28,30.24,10,4,0,8,1,10,0.05,8,Fog-Rain,157
2011-11-9,57,48,39,46,43,38,100,76,51,30.27,30.21,30.14,10,8,3,10,3,14,0.00,2,,292
2011-11-10,57,45,32,41,36,32,100,76,51,30.15,30.05,29.95,10,8,0,6,1,6,0.00,0,Fog,313
2011-11-11,46,38,30,44,34,28,100,91,82,29.95,29.82,29.62,10,2,0,15,4,21,0.11,8,Fog-Rain,243
2011-11-12,48,42,35,46,42,35,100,90,80,29.98,29.87,29.79,10,8,5,17,6,22,0.04,7,Rain,186
2011-11-13,53,48,43,46,45,43,100,86,71,30.02,29.97,29.85,10,8,2,12,3,15,0.02,8,Rain,213
2011-11-14,49,42,34,46,41,34,100,92,83,30.19,30.10,29.97,10,5,0,10,2,14,0.05,7,Fog-Rain,321
2011-11-15,42,37,32,40,35,30,100,95,89,30.32,30.26,30.19,4,1,0,5,0,6,0.03,5,Fog,248
2011-11-16,53,43,32,52,40,32,100,96,92,30.25,30.03,29.76,10,4,0,20,7,26,0.04,8,Fog-Rain,229
2011-11-17,52,45,38,42,39,36,92,82,71,29.96,29.84,29.68,10,9,3,22,8,28,0.29,6,Rain,204
2011-11-18,43,40,36,37,36,34,100,88,76,29.77,29.69,29.63,10,9,5,16,5,24,0.21,7,Rain,191
2011-11-19,42,35,28,37,35,28,100,90,79,29.89,29.81,29.74,10,10,5,8,3,9,0.01,7,Rain,229
2011-11-20,44,34,24,34,30,24,100,81,62,29.96,29.91,29.87,10,9,5,8,3,10,0.00,2,,241
2011-11-21,50,43,36,47,42,35,100,93,86,29.86,29.76,29.68,10,8,2,22,12,30,0.42,8,Rain-Snow,159
2011-11-22,56,52,48,55,52,46,100,93,86,29.70,29.61,29.55,10,6,2,29,15,39,2.09,8,Rain,175
2011-11-23,55,47,38,45,41,37,100,95,89,29.89,29.76,29.49,10,5,0,26,6,37,0.75,8,Fog-Rain,244
2011-11-24,45,41,37,42,39,37,100,91,82,29.96,29.84,29.71,10,7,1,25,9,32,0.28,7,Rain,173
2011-11-25,50,42,33,40,38,35,100,81,61,30.43,30.33,30.08,10,9,6,12,2,14,0.01,4,Rain,177
2011-11-26,52,46,40,45,42,39,100,86,71,30.41,30.32,30.19,10,10,6,7,0,9,0.01,4,Rain,315
2011-11-27,52,45,37,50,42,36,100,89,77,30.40,30.20,30.11,10,5,0,14,3,17,0.35,6,Fog-Rain,221
2011-11-28,48,41,33,43,39,32,100,83,66,30.50,30.45,30.40,10,6,0,8,1,9,T,3,Fog,300
2011-11-29,44,38,31,43,36,30,100,90,79,30.41,30.33,30.26,10,6,0,14,3,18,0.02,7,Fog-Rain,169
2011-11-30,51,42,32,45,41,31,100,84,68,30.73,30.49,30.30,10,6,1,12,2,14,0.02,6,Rain,341